Date,TemperatureHighF,TemperatureAvgF,TemperatureLowF,DewpointHighF,DewpointAvgF,DewpointLowF,HumidityHigh,HumidityAvg,HumidityLow,PressureMaxIn,PressureMinIn,WindSpeedMaxMPH,WindSpeedAvgMPH,GustSpeedMaxMPH,PrecipitationSumIn
2013-1-2,22.0,18.8,11.2,11.6,9.7,5.9,84,67,55,30.21,30.12,20,9,20,0.00
2013-1-3,31.9,24.2,15.6,27.2,19.0,9.8,85,80,75,30.28,30.12,24,9,24,0.00
2013-1-4,32.8,23.5,13.1,26.4,18.3,9.2,86,80,72,30.30,30.22,29,11,29,0.01
2013-1-5,35.2,29.1,21.2,31.2,25.1,18.2,89,85,78,30.25,30.00,27,10,27,0.00
2013-1-6,36.1,29.5,20.8,31.9,24.8,18.0,89,82,78,30.32,29.94,26,13,26,0.01
2013-1-7,35.2,27.2,18.7,27.6,22.8,16.5,92,84,72,30.35,30.11,32,11,32,0.00
2013-1-8,42.0,35.2,27.7,33.8,28.5,23.8,86,77,65,30.19,30.07,26,11,26,0.00
2013-1-9,50.7,42.7,33.7,38.5,34.1,27.8,92,72,52,30.45,30.07,26,9,26,0.00
2013-1-10,48.7,39.0,32.5,47.6,33.3,25.1,96,80,65,30.44,29.83,22,10,22,0.21
2013-1-11,57.5,54.9,49.0,56.0,51.0,47.6,97,87,78,29.83,29.69,36,20,36,0.15
2013-1-12,59.7,49.4,33.4,53.1,45.4,31.3,93,86,75,29.90,29.74,31,14,31,0.90
2013-1-13,33.9,27.1,17.0,31.9,24.2,11.9,93,89,79,30.24,29.75,28,14,28,0.10
2013-1-14,23.5,19.0,15.4,17.8,14.2,10.4,87,81,77,30.42,30.24,15,6,15,0.00
2013-1-15,29.1,23.7,17.3,22.9,18.8,13.8,87,81,72,30.36,30.05,21,9,21,0.00
2013-1-16,36.9,30.2,21.5,28.5,23.7,19.3,92,77,57,30.05,29.90,26,9,26,0.02
2013-1-17,34.7,31.1,23.4,29.3,24.4,17.9,88,76,62,30.38,30.02,26,10,26,0.00
2013-1-18,39.5,31.9,22.0,30.5,24.3,18.4,87,74,58,30.42,30.04,41,19,41,0.01
2013-1-19,51.9,42.4,36.4,38.8,34.3,30.2,83,73,58,30.04,29.80,45,20,48,0.00
2013-1-20,41.2,23.8,19.1,34.0,13.5,9.5,76,64,54,30.26,29.93,44,15,44,0.00
2013-1-21,19.7,13.5,7.0,13.7,4.0,-3.0,81,66,47,30.27,30.13,33,17,33,0.00
2013-1-22,17.0,9.7,4.5,1.0,-0.9,-2.2,82,62,48,30.36,30.25,24,12,24,0.00
2013-1-23,27.1,21.8,14.7,15.5,10.9,4.5,73,62,56,30.25,30.05,29,9,29,0.00
2013-1-24,23.6,18.2,9.8,11.2,6.2,1.5,74,60,47,30.55,30.22,24,12,24,0.00
2013-1-25,32.5,25.0,18.9,23.7,17.0,5.5,88,72,49,30.29,29.97,22,9,22,0.00
2013-1-26,32.5,24.2,16.3,18.1,15.4,10.7,79,69,54,30.34,30.10,20,7,20,0.01
2013-1-27,43.0,30.8,22.0,41.2,25.8,16.8,95,82,69,30.32,29.93,28,13,28,0.12
2013-1-28,57.2,50.6,43.2,56.4,49.2,41.5,97,95,92,29.94,29.84,33,19,33,0.06
2013-1-29,62.2,58.7,53.2,58.4,56.3,51.5,97,92,85,29.84,29.32,38,24,38,1.25
2013-1-30,53.4,41.2,23.4,51.9,38.3,16.6,96,89,75,29.70,29.24,41,19,41,0.33
2013-1-31,24.8,19.4,7.9,20.6,12.8,0.3,89,75,66,30.17,29.69,37,22,37,0.00
2013-2-1,20.6,13.0,4.9,12.7,4.8,-1.6,78,69,60,30.37,30.16,33,16,33,0.00
2013-2-2,28.7,22.1,15.0,24.3,17.9,9.4,91,84,71,30.16,29.95,24,12,24,0.00
2013-2-3,26.6,20.9,14.6,20.7,15.8,9.5,100,81,62,30.04,29.93,32,8,32,0.00
2013-2-4,40.9,30.4,22.9,32.3,24.3,17.9,83,78,69,30.01,29.73,23,12,23,0.00
2013-2-5,38.7,31.6,25.6,33.9,27.5,23.1,91,85,80,30.04,29.78,28,10,28,0.00
2013-2-6,40.4,34.7,30.5,31.0,27.6,25.1,85,75,65,30.20,30.04,20,8,20,0.00
2013-2-7,56.2,40.9,31.0,45.0,34.5,27.1,93,79,53,30.08,29.76,26,11,26,0.16
2013-2-8,34.6,31.1,27.1,32.2,27.6,23.7,91,87,84,30.32,29.87,30,14,30,0.00
2013-2-9,42.3,34.3,29.2,30.4,26.9,23.6,90,75,59,30.33,30.04,18,8,18,0.00
2013-2-10,52.2,44.4,35.3,49.7,40.1,26.6,94,85,64,30.06,29.58,43,20,43,0.34
2013-2-11,50.5,38.0,30.9,47.3,29.3,25.6,90,71,64,30.04,29.60,40,18,40,0.00
2013-2-12,35.2,30.5,26.0,29.0,26.2,23.2,90,84,75,30.08,29.88,15,5,15,0.00
2013-2-13,48.6,38.1,27.9,35.2,31.0,25.9,92,77,54,29.88,29.70,21,7,21,0.00
2013-2-14,45.9,38.2,34.6,36.7,32.2,29.0,89,79,69,29.95,29.72,32,13,32,0.00
2013-2-15,34.8,31.4,25.1,30.6,23.7,17.1,90,74,53,30.14,29.94,23,11,23,0.00
2013-2-16,25.4,21.8,17.5,18.0,12.9,7.7,80,69,57,30.13,30.07,24,13,24,0.00
2013-2-17,34.0,24.0,13.0,19.9,12.4,5.1,78,62,45,30.18,29.99,18,8,18,0.00
2013-2-18,52.5,42.5,32.1,45.7,34.5,18.8,92,74,55,29.99,29.46,46,25,46,0.49
2013-2-19,32.3,23.3,18.2,28.9,16.1,9.5,87,74,67,30.15,29.64,41,23,41,0.03
2013-2-20,26.0,19.0,10.5,18.0,11.4,3.8,83,72,61,30.30,30.15,28,11,28,0.00
2013-2-21,29.9,25.4,18.3,27.8,20.8,13.8,93,83,75,30.29,29.83,32,14,32,0.00
2013-2-22,35.5,32.2,28.1,33.7,29.6,23.4,96,90,80,29.95,29.76,26,9,26,0.11
2013-2-23,29.4,26.8,23.5,23.6,21.6,19.5,87,80,73,29.95,29.90,21,8,21,0.00
2013-2-24,39.1,29.4,18.5,28.4,23.5,16.1,99,79,62,30.09,29.94,10,3,10,0.00
2013-2-25,43.6,35.8,27.8,31.9,28.4,23.9,86,75,58,30.09,29.77,31,14,31,0.00
2013-2-26,36.7,34.9,33.1,35.0,32.1,28.4,95,90,73,29.77,29.33,44,15,44,0.77
2013-2-27,33.8,33.0,32.4,32.5,31.9,31.0,96,96,94,29.59,29.46,21,10,21,0.05
2013-2-28,36.8,33.7,32.0,32.4,30.5,27.3,92,88,83,29.98,29.88,24,11,24,0.03
2013-3-1,32.3,30.4,28.3,29.8,27.2,24.4,93,88,83,30.07,29.95,22,12,22,0.01
2013-3-2,30.4,27.9,22.9,26.5,23.4,16.8,90,83,73,30.11,30.05,21,13,21,0.00
2013-3-3,34.7,26.6,18.3,21.5,18.2,14.8,87,71,49,30.10,30.02,16,5,16,0.00
2013-3-4,36.9,31.7,24.6,30.1,24.7,20.7,87,76,63,30.06,29.85,25,11,25,0.00
2013-3-5,37.0,33.5,29.0,33.0,30.2,27.6,95,88,77,29.85,29.67,34,13,35,0.13
2013-3-6,31.1,29.1,28.0,28.5,27.0,25.9,95,92,89,30.25,29.84,28,15,28,0.00
2013-3-7,35.6,31.4,27.7,30.9,26.7,25.1,90,83,72,30.35,30.25,10,4,10,0.12
2013-3-8,42.2,34.5,26.3,31.5,27.6,22.6,89,76,62,30.42,30.25,17,8,17,0.01
2013-3-9,54.2,44.1,33.9,40.2,33.4,28.0,79,67,50,30.25,29.81,29,14,29,0.03
2013-3-10,62.6,56.6,52.3,51.7,45.2,37.8,92,66,53,29.81,29.61,43,21,43,0.04
2013-3-11,53.4,40.2,33.5,50.7,37.6,29.2,94,90,84,29.84,29.57,34,14,35,0.06
2013-3-12,41.1,34.2,29.4,33.3,27.5,21.4,92,77,58,30.02,29.84,31,15,31,0.03
2013-3-13,33.7,28.8,25.0,21.8,20.3,18.3,81,71,56,30.30,30.02,32,17,32,0.00
2013-3-14,38.2,30.2,23.3,31.1,25.5,20.1,94,83,59,30.30,30.07,21,7,21,0.01
2013-3-15,52.9,40.7,29.2,44.2,36.0,27.3,93,84,72,30.07,29.63,15,6,15,0.01
2013-3-16,46.5,38.3,32.4,40.7,34.2,27.5,95,85,76,30.03,29.56,26,13,26,0.00
2013-3-17,39.5,34.4,31.3,30.5,27.2,24.7,85,75,65,30.09,29.85,28,16,28,0.00
2013-3-18,39.6,35.3,28.0,37.0,32.1,20.0,95,88,71,29.85,29.56,31,14,31,0.03
2013-3-19,40.5,31.1,23.3,22.0,18.4,13.3,77,60,39,30.08,29.85,36,18,36,0.00
2013-3-20,31.8,25.8,20.3,21.8,13.5,7.2,77,60,42,30.08,30.00,32,18,32,0.00
2013-3-21,34.7,25.5,16.4,18.5,13.5,9.7,87,62,42,30.02,29.94,20,8,20,0.00
2013-3-22,44.2,33.6,20.7,23.8,19.2,15.7,86,58,37,30.02,29.93,15,3,15,0.00
2013-3-23,46.8,39.2,33.3,27.8,24.3,21.1,73,56,43,30.03,29.87,23,11,23,0.00
2013-3-24,34.9,31.7,29.6,30.5,28.6,25.5,96,88,74,29.88,29.46,39,18,39,0.00
2013-3-25,34.5,31.0,28.3,32.7,29.3,27.1,96,94,83,30.02,29.56,32,17,32,0.10
2013-3-26,38.9,34.3,30.2,29.1,27.2,23.4,85,76,56,30.23,30.02,25,11,25,0.00
2013-3-27,41.8,35.7,30.0,28.3,25.9,21.6,86,69,45,30.29,30.22,20,7,20,0.00
2013-3-28,48.2,38.8,28.6,32.1,28.1,23.8,83,67,47,30.32,30.23,12,4,12,0.00
2013-3-29,55.1,44.9,35.2,36.9,33.2,29.7,84,65,46,30.26,30.15,12,4,12,0.00
2013-3-30,56.3,47.1,32.9,41.7,36.4,30.0,90,68,47,30.17,29.83,24,8,24,0.00
2013-3-31,60.9,51.0,41.6,45.2,42.1,32.4,93,73,50,29.85,29.71,33,12,33,0.02
2013-4-1,43.4,38.2,33.4,32.4,23.1,17.6,70,55,36,30.13,29.85,28,16,28,0.00
2013-4-2,45.6,36.3,27.1,21.9,18.9,14.3,75,51,30,30.25,30.13,24,10,24,0.00
2013-4-3,47.3,38.6,28.4,24.5,20.6,16.6,72,50,32,30.37,30.23,21,8,21,0.00
2013-4-4,59.1,46.2,33.5,28.6,23.9,19.4,67,44,26,30.25,29.94,14,4,14,0.00
2013-4-5,57.3,47.4,39.3,37.6,29.3,21.7,76,52,28,30.10,29.94,21,11,21,0.00
2013-4-6,70.8,56.3,39.7,43.5,36.3,26.0,68,48,34,30.07,29.67,50,21,50,0.00
2013-4-7,72.1,62.4,52.3,47.3,43.6,41.2,73,52,34,29.89,29.68,40,10,40,0.03
2013-4-8,74.5,65.2,56.6,60.3,56.1,42.5,91,73,54,29.88,29.69,40,17,40,0.02
2013-4-9,76.4,69.2,60.9,62.8,59.4,55.0,82,71,56,29.90,29.80,50,16,50,0.00
2013-4-10,73.7,61.4,45.8,66.3,57.0,43.6,95,86,66,29.83,29.60,33,15,33,0.77
2013-4-11,63.1,51.8,41.2,61.0,49.7,34.5,96,92,78,29.74,29.54,28,12,28,0.27
2013-4-12,43.7,40.6,38.0,36.5,34.3,30.7,84,78,72,29.89,29.61,31,15,31,0.00
2013-4-13,50.2,43.7,38.9,38.7,34.8,29.6,85,71,57,29.98,29.88,28,11,28,0.00
2013-4-14,74.0,58.5,43.3,50.0,44.0,37.2,84,61,37,29.94,29.68,35,15,35,0.00
2013-4-15,67.0,60.2,51.2,60.3,54.0,48.1,92,80,62,29.89,29.73,39,17,39,0.12
2013-4-16,51.4,48.7,46.1,48.6,45.4,41.1,98,88,75,30.17,29.85,26,12,26,1.64
2013-4-17,73.5,55.6,46.0,68.0,51.4,39.7,96,86,76,30.15,29.72,38,13,38,0.42
2013-4-18,71.8,62.2,43.9,65.7,59.1,41.3,96,90,78,29.72,29.51,39,17,39,1.98
2013-4-19,43.9,39.3,37.7,41.3,32.7,28.7,91,77,68,29.95,29.58,35,19,35,0.01
2013-4-20,45.9,39.7,33.2,32.2,28.4,25.0,84,65,46,30.35,29.95,20,9,20,0.00
2013-4-21,55.2,44.9,34.8,35.5,30.6,25.6,76,58,45,30.45,30.27,23,11,23,0.00
2013-4-22,67.3,55.7,41.4,43.8,36.4,31.4,68,50,29,30.27,30.01,20,8,20,0.00
2013-4-23,62.5,55.5,41.0,56.2,48.5,38.9,95,79,59,30.02,29.75,37,13,37,0.97
2013-4-24,48.4,42.0,36.5,39.3,35.5,30.7,93,79,53,30.16,29.83,25,13,25,0.19
2013-4-25,53.2,45.9,38.8,36.7,32.5,25.9,84,62,41,30.29,30.12,37,14,37,0.00
2013-4-26,62.9,51.9,37.9,46.9,40.3,33.8,89,66,49,30.35,30.23,25,9,25,0.00
2013-4-27,62.4,54.7,47.0,53.6,46.5,41.3,95,76,47,30.26,29.90,21,8,21,0.20
2013-4-28,59.9,56.4,53.8,55.8,54.2,52.3,99,92,85,29.90,29.80,16,6,16,0.11
2013-4-29,70.9,61.0,50.7,57.2,53.7,49.0,94,78,61,29.93,29.79,28,12,28,0.00
2013-4-30,81.1,69.9,58.4,63.6,58.2,52.4,81,67,53,29.93,29.83,27,15,27,0.00
2013-5-1,81.8,73.0,61.1,60.0,57.1,51.8,80,59,37,30.08,29.93,25,8,25,0.00
2013-5-2,80.2,66.8,47.8,62.6,56.7,44.3,90,71,46,30.08,29.96,23,8,23,0.17
2013-5-3,73.7,60.1,46.4,62.2,53.3,42.8,94,80,58,30.01,29.80,31,12,31,0.17
2013-5-4,64.9,59.9,55.1,58.1,54.0,49.4,93,82,61,29.97,29.83,22,8,22,0.06
2013-5-5,65.5,58.7,53.7,56.6,53.0,51.1,94,82,64,29.97,29.86,29,10,29,0.04
2013-5-6,68.8,65.3,57.1,56.4,54.0,49.2,76,67,61,29.94,29.86,24,10,24,0.00
2013-5-7,75.0,65.8,57.1,57.3,52.9,46.5,83,64,46,29.97,29.90,22,6,22,0.00
2013-5-8,79.7,69.0,56.5,59.1,55.4,51.5,86,64,43,29.98,29.90,14,4,14,0.00
2013-5-9,72.7,62.9,57.3,62.3,58.5,53.8,94,86,64,29.98,29.80,28,7,28,0.84
2013-5-10,66.9,58.3,46.4,60.2,54.6,42.1,94,87,77,29.93,29.77,23,10,23,0.00
2013-5-11,64.3,52.5,45.8,54.4,41.2,30.7,92,69,32,30.02,29.85,38,14,38,0.00
2013-5-12,56.6,48.5,40.3,35.0,30.5,26.3,76,51,32,30.10,30.02,29,13,29,0.00
2013-5-13,66.5,54.8,39.3,41.3,34.1,27.3,83,50,26,30.15,30.02,26,8,26,0.00
2013-5-14,85.5,70.6,53.9,64.6,53.8,39.5,69,56,46,30.03,29.72,36,18,36,0.00
2013-5-15,87.8,78.8,70.3,65.5,60.3,54.6,70,54,42,29.82,29.74,26,13,27,0.00
2013-5-16,83.8,74.7,66.2,65.1,60.0,51.9,83,62,36,29.92,29.77,20,6,20,0.00
2013-5-17,80.3,71.8,63.1,65.9,62.3,58.3,92,73,51,29.97,29.89,24,8,24,0.00
2013-5-18,78.6,70.6,62.8,64.9,62.9,60.1,92,77,62,30.00,29.88,20,6,20,0.00
2013-5-19,86.5,75.6,63.0,71.8,66.5,60.9,94,75,53,29.92,29.75,25,9,25,0.00
2013-5-20,85.7,78.4,72.8,71.7,67.4,60.1,87,70,51,29.84,29.71,43,18,43,0.00
2013-5-21,82.3,73.0,63.4,69.3,64.4,60.6,91,76,53,29.79,29.66,48,18,48,0.11
2013-5-22,76.3,68.5,62.2,65.7,61.2,56.9,91,78,53,29.76,29.61,36,14,36,0.52
2013-5-23,63.2,55.3,44.9,58.2,50.0,35.9,91,82,70,30.19,29.75,31,14,31,0.02
2013-5-24,66.1,53.2,39.9,41.4,38.2,35.3,85,60,35,30.34,30.19,22,11,22,0.00
2013-5-25,63.0,53.8,46.3,51.5,42.5,34.9,91,67,40,30.33,30.16,15,6,15,0.15
2013-5-26,66.3,58.5,51.5,56.7,50.7,44.8,91,76,64,30.23,30.02,22,10,22,0.02
2013-5-27,79.0,65.0,58.1,69.5,61.1,55.8,94,87,69,30.04,29.78,40,12,40,0.31
2013-5-28,81.3,73.1,64.3,70.5,66.0,61.8,94,79,68,29.88,29.77,45,18,45,0.00
2013-5-29,85.7,77.1,68.7,68.9,65.1,61.0,84,68,48,29.94,29.85,33,18,33,0.00
2013-5-30,84.5,76.7,68.4,70.4,67.3,63.1,87,73,58,29.95,29.83,46,20,46,0.25
2013-5-31,77.1,71.0,64.1,71.2,66.7,61.7,93,87,78,29.91,29.75,45,16,45,0.70
2013-6-1,72.4,66.9,61.8,65.7,63.0,59.4,96,88,77,29.82,29.68,38,15,38,0.72
2013-6-2,65.5,60.7,53.9,60.9,57.1,49.0,94,88,80,29.99,29.75,23,9,23,0.08
2013-6-3,67.3,58.6,49.7,50.8,47.6,44.2,84,68,50,30.07,29.96,22,9,22,0.00
2013-6-4,74.0,65.3,53.7,55.1,50.8,47.3,83,61,42,30.09,29.99,21,9,21,0.00
2013-6-5,80.3,70.2,59.3,59.6,55.8,52.1,78,61,45,30.01,29.82,18,7,18,0.00
2013-6-6,79.7,69.9,62.2,60.2,55.7,50.3,73,61,48,29.82,29.74,22,11,22,0.00
2013-6-7,64.8,60.2,58.2,57.8,54.4,53.1,86,81,73,29.83,29.78,14,9,14,0.00
2013-6-8,79.4,70.9,63.0,63.7,58.7,54.1,88,67,43,29.94,29.89,13,3,26,0.00
2013-6-9,79.7,70.6,63.1,65.3,62.4,56.8,95,78,47,29.90,29.71,16,7,25,0.03
2013-6-10,79.8,72.3,62.6,63.8,61.2,58.6,88,69,54,29.91,29.75,10,3,19,0.03
2013-6-11,85.1,79.5,69.1,70.6,66.7,61.6,84,66,48,29.92,29.80,25,9,25,0.00
2013-6-12,92.7,82.6,70.1,75.0,72.0,67.3,93,72,51,29.87,29.59,33,12,33,0.00
2013-6-13,86.1,72.2,63.1,73.5,60.9,50.6,89,69,40,29.97,29.59,34,15,35,0.03
2013-6-14,81.6,69.0,56.4,61.9,56.5,52.1,86,66,41,30.06,29.94,14,6,14,0.00
2013-6-15,84.0,72.4,63.4,67.6,63.0,59.0,87,73,50,30.04,29.86,26,8,26,0.04
2013-6-16,80.7,73.1,67.1,70.8,67.5,63.8,92,83,71,29.95,29.86,43,10,43,0.16
2013-6-17,88.8,76.8,68.5,72.6,66.3,58.7,97,74,38,29.92,29.83,21,4,21,0.00
2013-6-18,84.0,73.7,64.9,65.3,62.8,57.9,92,71,46,29.97,29.85,28,10,28,0.00
2013-6-19,84.5,72.5,61.7,65.3,60.9,56.7,86,68,47,30.05,29.96,18,9,18,0.00
2013-6-20,86.0,76.7,66.2,67.0,63.8,60.1,83,66,48,30.12,30.04,22,8,22,0.00
2013-6-21,88.2,77.1,67.5,72.5,67.1,62.7,85,72,56,30.11,30.03,33,11,33,0.54
2013-6-23,69.8,69.7,69.5,66.1,66.1,66.1,89,88,88,30.05,30.05,3,2,6,0.16
2013-6-24,85.8,78.5,69.4,75.4,71.1,62.7,91,78,60,30.07,29.89,32,12,32,0.10
2013-6-25,89.3,77.2,68.0,75.2,70.6,65.5,93,81,60,29.96,29.80,33,13,33,0.58
2013-6-26,81.1,74.0,68.1,74.7,69.8,65.9,93,87,72,29.86,29.68,28,11,28,0.10
2013-6-27,89.0,79.6,70.9,75.2,71.3,68.6,96,78,55,29.77,29.68,28,10,28,0.00
2013-6-28,83.8,74.8,66.7,68.7,64.5,59.5,92,72,45,29.72,29.59,32,11,32,0.04
2013-6-29,72.9,67.7,64.2,66.2,64.0,62.1,93,88,77,29.66,29.56,21,8,21,0.20
2013-6-30,73.9,67.8,64.5,64.3,62.4,60.3,94,83,65,29.86,29.66,37,15,37,0.06
2013-7-1,75.8,68.1,64.3,65.2,61.1,56.8,89,79,64,29.93,29.84,29,15,29,0.05
2013-7-2,67.4,64.0,61.8,62.5,60.1,57.7,92,87,80,29.98,29.91,21,12,21,0.01
2013-7-3,73.2,67.1,62.6,65.6,63.1,60.5,96,87,71,30.05,29.95,17,6,17,0.02
2013-7-4,79.3,69.8,58.7,64.5,61.2,56.7,94,76,52,30.10,30.00,16,4,16,0.00
2013-7-5,81.2,73.5,65.4,68.5,66.2,62.9,96,79,62,30.07,29.98,15,6,15,0.00
2013-7-6,74.8,71.3,67.6,69.9,68.2,66.0,95,90,82,30.04,29.96,16,6,16,0.00
2013-7-7,84.5,75.0,65.4,72.7,68.7,63.9,96,82,62,30.03,29.94,24,8,24,0.00
2013-7-8,86.4,78.3,71.7,75.9,72.1,68.7,91,82,67,30.05,29.95,29,11,29,0.00
2013-7-9,90.8,81.9,75.8,79.1,75.0,71.9,89,80,63,29.99,29.87,18,9,18,0.00
2013-7-10,84.8,77.6,68.4,77.0,71.7,63.0,93,83,64,29.99,29.76,34,12,34,0.69
2013-7-11,79.3,71.4,63.8,63.2,59.5,56.4,84,67,49,30.03,29.94,24,10,24,0.00
2013-7-12,81.9,71.1,58.2,63.7,59.2,53.7,86,67,47,30.09,30.01,20,7,20,0.00
2013-7-13,83.3,74.2,61.4,69.1,63.7,57.8,89,71,54,30.10,30.02,23,9,23,0.00
2013-7-14,89.0,79.4,67.8,73.7,69.6,63.8,88,73,57,30.14,30.06,15,6,15,0.00
2013-7-15,88.0,81.0,74.0,75.1,73.0,70.6,90,77,66,30.22,30.13,18,7,18,0.00
2013-7-16,91.8,82.6,72.2,74.9,72.6,69.4,92,73,52,30.29,30.21,15,3,15,0.00
2013-7-17,92.7,83.7,74.4,77.0,73.8,70.9,90,74,54,30.30,30.15,14,3,14,0.00
2013-7-18,92.9,84.5,74.6,77.5,75.3,71.8,92,75,57,30.17,29.97,20,5,20,0.00
2013-7-19,92.0,83.8,75.9,77.5,75.0,72.8,91,76,59,29.98,29.80,31,12,31,0.00
2013-7-20,83.3,76.1,68.8,76.6,71.8,66.6,93,87,77,29.89,29.79,20,8,20,1.86
2013-7-21,79.2,73.4,68.0,72.4,69.8,66.5,95,89,79,29.92,29.82,12,4,12,0.00
2013-7-22,84.4,75.3,68.6,72.2,69.8,66.8,95,84,66,29.83,29.74,18,5,18,0.93
2013-7-23,83.5,74.8,63.8,71.5,67.0,56.5,92,78,58,29.90,29.71,28,11,30,0.03
2013-7-24,73.1,64.8,55.9,56.9,53.9,51.1,85,69,52,30.00,29.88,22,12,22,0.00
2013-7-25,78.6,67.7,56.8,61.3,56.9,52.4,88,70,51,30.07,29.98,14,4,14,0.00
2013-7-26,76.5,68.3,60.8,65.7,62.1,58.0,92,81,61,30.04,29.86,23,7,23,0.03
2013-7-27,71.2,65.7,56.2,65.4,57.0,50.2,92,75,51,29.92,29.84,26,10,26,0.00
2013-7-28,72.3,63.0,51.6,58.1,52.6,47.9,89,70,51,30.00,29.89,27,8,27,0.00
2013-7-29,77.9,67.1,55.5,62.7,56.8,53.0,92,72,46,30.12,30.00,16,3,16,0.00
2013-7-30,69.8,66.7,62.6,66.4,62.6,58.9,94,87,78,30.13,30.01,20,6,20,0.08
2013-7-31,76.7,70.4,66.6,70.9,67.3,64.6,96,90,80,30.02,29.90,15,6,15,0.01
2013-8-1,80.8,72.2,63.6,66.9,61.0,56.4,94,71,45,29.98,29.91,26,8,26,0.00
2013-8-2,81.3,71.8,62.0,71.5,65.3,57.4,89,80,69,29.94,29.87,26,10,26,0.02
2013-8-3,81.2,73.3,66.3,69.1,64.6,57.0,95,76,52,30.05,29.89,20,8,20,1.05
2013-8-4,79.0,69.9,60.3,62.5,58.1,52.9,87,68,49,30.13,30.05,15,4,15,0.00
2013-8-5,77.4,70.6,62.1,65.9,62.0,59.1,91,75,56,30.07,29.86,23,6,23,0.00
2013-8-6,82.4,73.8,68.0,73.0,68.4,64.4,90,83,69,29.89,29.82,14,6,14,0.00
2013-8-7,83.2,76.0,70.6,75.5,72.1,68.5,94,88,76,29.87,29.80,20,8,20,0.00
2013-8-8,76.6,73.0,68.6,72.4,69.5,63.6,94,89,83,29.92,29.84,20,9,20,0.00
2013-8-9,82.7,73.1,64.0,67.4,63.0,59.7,87,72,51,30.01,29.90,14,6,14,0.00
2013-8-10,83.1,75.6,68.6,69.6,65.8,61.8,89,73,51,30.07,30.00,17,6,17,0.00
2013-8-11,82.5,72.7,61.5,67.0,63.3,58.5,90,74,53,30.08,30.01,12,4,12,0.00
2013-8-12,83.8,74.4,67.2,72.4,67.0,63.2,89,79,62,30.03,29.84,17,5,17,0.00
2013-8-13,73.7,67.6,58.5,67.6,59.0,51.0,93,75,52,30.09,29.85,27,12,27,0.00
2013-8-14,70.1,61.6,53.1,54.0,51.5,48.0,87,70,54,30.17,30.08,21,7,21,0.00
2013-8-15,73.0,63.8,54.2,58.9,53.8,50.3,92,71,50,30.15,30.05,18,4,18,0.00
2013-8-16,76.6,68.9,61.7,60.9,57.2,54.4,84,67,48,30.12,30.06,18,6,18,0.00
2013-8-17,78.5,69.8,61.5,60.7,58.2,55.8,82,68,48,30.17,30.08,20,8,20,0.00
2013-8-18,81.6,71.7,59.6,67.1,62.5,56.0,89,74,56,30.13,30.04,16,5,16,0.00
2013-8-19,84.5,74.0,62.5,67.3,64.6,59.8,92,74,49,30.09,30.00,15,3,15,0.00
2013-8-20,86.2,75.4,64.8,70.9,67.0,62.4,93,77,55,30.09,30.01,16,3,16,0.00
2013-8-21,87.4,77.0,66.3,72.5,68.7,64.2,94,77,53,30.08,29.97,20,6,20,0.00
2013-8-22,83.5,74.4,70.3,70.9,67.8,66.2,88,80,63,30.08,29.96,26,9,26,0.00
2013-8-23,81.2,73.2,65.4,68.9,66.6,63.1,93,81,60,30.10,30.02,17,7,17,0.00
2013-8-24,85.7,74.7,63.5,65.4,62.6,59.1,89,68,46,30.20,30.09,15,7,15,0.00
2013-8-25,86.7,75.0,62.5,67.6,62.7,57.6,85,67,45,30.24,30.14,17,5,17,0.00
2013-8-26,88.7,78.1,67.4,74.7,69.5,62.0,90,76,56,30.17,30.01,20,6,20,0.00
2013-8-27,90.7,80.8,71.9,76.7,72.5,68.9,92,77,60,30.03,29.90,22,9,22,0.00
2013-8-28,93.0,80.9,72.7,77.9,72.3,67.8,89,76,60,29.96,29.87,25,10,25,0.00
2013-8-29,87.3,77.2,71.4,74.1,70.8,68.7,95,82,57,30.02,29.93,17,6,17,0.00
2013-8-30,93.5,80.4,68.2,78.3,72.3,64.6,93,77,59,29.94,29.76,47,6,47,0.26
2013-8-31,95.4,77.0,68.5,79.8,70.2,65.2,91,80,60,29.81,29.66,28,6,28,0.14
2013-9-1,79.7,72.9,69.3,72.3,69.7,67.5,94,90,77,29.77,29.71,13,5,13,0.00
2013-9-2,82.0,73.8,64.7,69.2,65.1,60.4,93,76,51,29.91,29.74,21,10,21,0.00
2013-9-3,76.7,66.6,58.2,61.7,57.7,55.3,92,74,53,30.05,29.91,15,4,15,0.00
2013-9-4,82.5,69.5,57.1,64.3,60.0,54.5,92,74,50,30.11,30.01,12,3,12,0.00
2013-9-5,89.0,73.7,61.6,69.0,62.9,58.6,91,71,48,30.15,30.07,16,4,16,0.00
2013-9-6,85.8,73.7,62.7,68.9,63.5,56.5,86,71,56,30.16,30.00,14,6,14,0.00
2013-9-7,87.3,76.5,66.1,69.5,66.6,63.3,91,73,50,30.02,29.88,27,7,27,0.00
2013-9-8,84.2,76.8,69.3,73.3,69.6,66.3,91,79,64,29.93,29.87,12,5,12,0.00
2013-9-9,93.2,80.6,69.4,77.0,72.4,67.9,95,78,53,29.92,29.83,27,12,27,0.00
2013-9-10,95.7,82.9,73.2,74.7,72.2,67.9,91,72,42,30.04,29.91,22,9,22,0.00
2013-9-11,94.3,82.4,72.2,72.4,69.0,65.0,92,67,39,30.06,29.95,24,8,24,0.00
2013-9-12,83.8,73.8,63.3,69.5,64.1,52.4,92,74,40,29.99,29.86,28,10,28,0.01
2013-9-13,68.4,61.2,52.3,57.7,50.9,46.3,86,70,49,30.08,29.99,25,11,25,0.00
2013-9-14,72.6,58.6,47.5,50.3,44.9,39.6,88,64,33,30.15,30.01,14,5,14,0.00
2013-9-15,75.5,62.5,50.3,61.3,52.8,46.5,92,72,45,30.04,29.93,28,8,28,0.06
2013-9-16,66.0,60.9,54.4,58.6,54.7,50.3,93,81,65,30.25,30.04,25,11,25,0.00
2013-9-17,73.4,62.0,50.7,58.5,53.2,47.9,92,74,51,30.25,30.06,20,8,20,0.00
2013-9-18,82.8,70.8,60.8,68.8,63.1,56.6,89,77,62,30.06,29.93,20,9,20,0.00
2013-9-19,87.7,76.7,69.0,74.0,70.5,67.2,94,82,60,29.98,29.81,31,14,31,0.25
2013-9-20,77.8,70.6,60.7,71.5,66.5,54.5,94,87,79,29.85,29.76,28,9,28,0.41
2013-9-21,69.8,61.2,53.0,54.5,50.9,47.5,91,71,47,29.88,29.77,22,10,22,0.00
2013-9-22,70.8,59.7,49.1,53.6,49.6,46.2,91,71,49,29.98,29.88,20,5,20,0.00
2013-9-23,73.0,60.1,48.1,52.5,48.6,44.6,90,68,43,30.04,29.95,16,8,16,0.00
2013-9-24,76.8,63.0,49.4,61.1,53.6,46.0,90,72,55,29.99,29.83,18,8,18,0.00
2013-9-25,79.6,67.3,56.9,62.4,56.2,50.7,82,69,52,29.88,29.81,15,8,15,0.00
2013-9-26,80.1,67.0,55.2,56.5,53.1,50.7,86,64,38,30.01,29.88,15,6,15,0.00
2013-9-27,81.0,67.6,54.6,59.5,55.4,50.8,87,67,42,30.11,30.00,17,5,17,0.00
2013-9-28,82.5,69.2,54.8,63.3,57.4,51.9,90,68,46,30.07,29.92,31,11,31,0.00
2013-9-29,73.6,65.3,57.9,60.9,56.3,51.3,93,74,51,29.99,29.91,21,9,21,0.18
2013-9-30,76.0,63.1,52.0,61.2,56.4,48.9,94,80,53,29.96,29.86,20,7,20,0.00
2013-10-1,80.7,69.3,62.0,66.8,63.5,60.1,94,83,60,29.99,29.90,22,10,22,0.00
2013-10-2,73.3,68.5,64.5,69.0,66.2,62.8,96,93,86,30.04,29.95,12,4,12,0.00
2013-10-3,83.5,73.1,65.4,69.2,66.5,62.7,95,81,60,29.97,29.85,28,13,28,0.36
2013-10-4,83.5,73.4,65.0,71.4,67.6,62.6,93,83,64,29.96,29.89,24,11,24,0.91
2013-10-5,78.3,70.7,66.5,72.3,67.8,64.1,94,91,75,29.94,29.75,25,11,25,0.51
2013-10-6,66.9,56.9,48.5,65.1,48.7,39.5,94,76,47,29.79,29.67,33,11,33,0.08
2013-10-7,67.4,54.0,44.3,50.5,46.6,42.1,93,78,48,30.07,29.77,24,8,24,0.06
2013-10-8,74.5,59.7,46.8,54.6,49.5,44.6,93,72,43,30.17,30.07,16,4,16,0.00
2013-10-9,74.0,59.7,47.4,53.4,48.7,43.4,87,70,42,30.18,30.07,17,4,17,0.00
2013-10-10,76.3,62.8,50.5,60.2,54.2,47.7,91,75,52,30.12,30.00,12,3,12,0.00
2013-10-11,76.2,64.3,53.3,59.9,55.1,50.7,92,74,52,30.04,29.93,18,6,18,0.00
2013-10-12,75.8,65.6,55.5,63.7,57.4,48.9,86,75,62,30.12,29.95,24,8,24,0.00
2013-10-13,69.0,58.5,48.5,48.6,41.6,35.1,81,57,30,30.32,30.10,21,8,21,0.00
2013-10-14,69.0,54.9,42.7,49.4,43.1,38.6,86,67,38,30.32,30.08,15,6,15,0.00
2013-10-15,64.8,59.4,52.0,62.2,55.1,44.9,94,86,76,30.10,29.82,30,10,30,0.08
2013-10-16,59.4,51.0,44.8,54.8,45.0,42.0,90,80,70,29.94,29.85,22,8,22,0.00
2013-10-17,57.7,48.7,43.1,46.3,42.5,40.1,93,80,52,29.93,29.82,26,6,26,0.04
2013-10-18,57.6,48.7,42.7,47.0,42.5,39.3,89,79,66,29.94,29.85,22,8,22,0.00
2013-10-19,55.1,46.9,41.0,42.2,38.5,34.6,92,74,47,29.94,29.83,30,9,30,0.23
2013-10-20,66.5,53.1,39.9,45.5,41.5,35.8,86,66,45,29.90,29.79,40,17,40,0.00
2013-10-21,55.2,47.9,37.3,45.3,39.1,27.2,86,72,55,29.97,29.83,26,11,26,0.00
2013-10-22,48.6,38.1,29.9,39.3,32.7,25.8,93,81,55,29.98,29.79,29,8,29,0.31
2013-10-23,43.6,38.9,34.0,35.2,33.2,31.3,93,81,63,30.02,29.82,22,10,22,0.01
2013-10-24,41.6,38.0,34.7,34.3,30.9,25.9,91,76,56,30.27,30.01,22,10,22,0.06
2013-10-25,50.8,39.3,26.9,31.1,28.1,24.1,89,66,43,30.40,30.14,24,8,24,0.00
2013-10-26,57.3,45.4,36.2,41.0,33.3,27.5,80,63,44,30.14,29.86,29,15,29,0.00
2013-10-27,56.9,43.2,30.5,36.1,31.7,27.6,90,67,38,30.06,29.96,22,4,22,0.00
2013-10-28,62.4,46.7,31.7,39.1,34.0,28.8,90,65,34,30.24,30.02,12,2,12,0.00
2013-10-29,56.6,48.1,39.5,48.6,42.0,34.8,92,80,69,30.26,30.08,14,6,14,0.01
2013-10-30,66.4,58.6,50.2,63.8,56.6,48.0,95,93,88,30.08,29.82,32,10,32,0.02
2013-10-31,65.5,60.3,49.2,62.2,58.1,46.4,94,93,89,29.82,29.26,44,20,44,2.12
2013-11-1,54.1,48.7,44.8,46.3,43.8,41.8,93,83,69,29.75,29.43,34,11,35,0.08
2013-11-2,49.1,44.3,38.3,42.4,39.4,35.6,92,83,70,30.10,29.73,23,8,23,0.00
2013-11-3,54.2,43.3,32.4,41.2,35.0,30.4,93,74,49,30.27,30.09,16,5,16,0.00
2013-11-4,57.7,50.3,42.7,44.3,40.6,35.1,76,70,55,30.23,30.13,33,14,33,0.00
2013-11-5,59.2,54.3,49.9,48.6,46.8,43.6,91,76,65,30.26,30.00,28,12,28,0.03
2013-11-6,60.2,49.9,38.3,53.0,45.9,32.7,92,86,66,30.13,29.84,33,19,33,0.27
2013-11-7,48.2,38.5,31.0,36.5,31.1,27.6,91,76,50,30.26,30.11,31,9,31,0.00
2013-11-8,51.2,41.4,30.4,34.0,31.1,27.5,92,69,46,30.31,30.03,28,9,28,0.00
2013-11-9,63.0,52.0,43.9,44.4,38.8,31.8,75,61,47,30.12,29.93,34,18,35,0.00
2013-11-10,48.9,42.0,36.2,37.8,32.5,30.2,80,69,54,30.33,30.12,24,9,24,0.00
2013-11-11,51.9,41.1,29.4,42.8,34.8,24.9,93,79,65,30.38,30.05,30,14,30,0.07
2013-11-12,32.9,27.0,23.4,25.7,21.2,18.3,87,79,66,30.63,30.36,26,11,26,0.00
2013-11-13,38.7,29.3,18.9,24.3,20.8,15.9,89,72,51,30.58,30.24,28,12,28,0.00
2013-11-14,51.9,40.7,30.3,28.7,25.6,21.6,73,56,38,30.24,30.00,37,20,37,0.00
2013-11-15,53.1,46.4,40.7,40.5,32.8,27.1,86,60,49,30.01,29.93,25,15,25,0.00
2013-11-16,62.2,54.8,44.5,58.7,50.8,40.1,94,86,74,29.94,29.63,39,21,39,0.07
2013-11-17,68.5,63.9,61.1,63.8,60.6,58.1,92,89,85,29.66,29.25,56,25,56,0.30
2013-11-18,38.7,38.0,37.3,29.4,29.1,28.8,72,70,68,30.29,30.28,10,8,15,0.00
2013-11-19,31.1,31.1,31.1,26.5,26.5,26.5,83,83,83,30.19,30.18,9,9,13,0.00
2013-11-20,49.4,42.7,31.1,37.1,32.6,26.3,83,68,59,30.21,30.04,21,10,21,0.29
2013-11-21,49.9,47.8,45.4,47.7,43.6,36.6,95,86,62,30.14,30.07,18,9,18,0.69
2013-11-22,48.7,40.6,31.4,47.3,37.6,27.6,95,89,79,30.43,30.10,25,11,25,0.04
2013-11-23,31.4,24.8,17.3,27.6,17.3,9.2,87,73,62,30.62,30.38,35,16,35,0.00
2013-11-24,27.9,20.2,13.2,11.4,9.0,6.1,79,63,41,30.67,30.40,20,7,20,0.00
2013-11-25,33.1,28.9,21.7,25.1,19.4,10.4,78,67,61,30.40,30.10,30,13,30,0.00
2013-11-26,39.8,32.4,24.1,29.5,25.3,13.0,82,75,64,30.12,29.94,31,12,31,0.00
2013-11-27,27.8,20.8,14.8,14.1,11.0,7.6,77,66,50,30.25,30.05,33,14,33,0.00
2013-11-28,38.8,28.5,19.0,23.0,17.9,12.9,79,65,52,30.42,30.15,39,12,39,0.00
2013-11-29,38.3,29.2,18.5,24.3,20.6,14.2,84,71,55,30.56,30.37,12,6,12,0.00
2013-11-30,50.5,40.6,30.6,34.0,28.7,22.3,77,63,49,30.37,30.05,29,14,29,0.00
2013-12-1,49.8,39.8,30.3,37.0,32.5,27.4,90,76,59,30.05,29.90,16,5,16,0.00
2013-12-2,46.0,39.7,35.3,40.2,35.2,30.2,97,84,73,29.90,29.67,17,9,17,0.01
2013-12-3,51.2,46.8,40.0,48.9,44.6,37.9,98,92,89,29.71,29.65,21,9,21,0.00
2013-12-4,62.1,53.7,45.9,58.9,51.3,43.8,100,92,79,29.70,29.50,27,13,27,0.01
2013-12-5,49.3,30.6,23.9,44.0,24.4,16.1,87,78,69,30.21,29.70,24,15,24,0.00
2013-12-6,23.8,21.3,15.4,18.6,14.5,9.2,83,75,70,30.47,30.17,20,14,20,0.00
2013-12-7,23.2,17.0,10.0,12.6,8.0,5.3,82,68,51,30.61,30.45,21,11,21,0.00
2013-12-8,28.0,24.2,18.4,26.4,20.3,12.3,99,85,76,30.47,29.93,25,13,25,0.00
2013-12-9,26.6,22.5,16.7,24.6,16.9,10.4,92,79,70,30.20,29.95,28,10,28,0.00
2013-12-10,28.4,18.5,7.6,17.5,9.9,1.1,81,69,59,30.27,30.09,35,10,35,0.00
2013-12-11,25.7,17.6,5.1,19.7,12.0,-2.0,94,78,67,30.54,30.22,25,10,25,0.00
2013-12-12,23.4,13.6,2.0,11.6,4.7,-3.9,79,68,53,30.54,30.20,30,13,30,0.00
2013-12-13,39.4,27.5,18.2,29.8,20.7,10.1,93,76,55,30.20,30.00,23,8,23,0.00
2013-12-14,33.0,30.8,25.1,31.7,28.8,22.0,95,92,88,30.01,29.73,23,10,23,0.06
2013-12-15,25.1,20.0,14.9,22.0,16.2,11.2,89,85,79,30.06,29.95,27,11,27,0.00
2013-12-16,24.5,20.0,16.2,22.8,17.6,13.3,100,91,86,30.06,29.95,20,8,20,0.00
2013-12-17,30.4,23.8,19.9,27.6,21.0,16.4,100,89,75,30.11,29.99,20,10,20,0.00
2013-12-18,39.5,27.4,12.3,29.4,18.5,8.1,84,70,51,30.18,29.88,35,14,35,0.06
2013-12-19,47.8,43.0,38.5,44.0,37.9,29.5,89,82,69,29.92,29.75,24,15,24,0.11
2013-12-20,59.1,50.7,35.6,56.3,48.2,33.6,94,91,87,29.77,29.65,29,16,29,0.14
2013-12-21,37.0,34.9,32.6,36.5,33.4,31.1,100,94,93,29.79,29.42,26,11,26,1.75
2013-12-22,36.8,33.6,28.8,35.5,31.6,25.1,95,92,86,30.10,29.45,27,13,27,0.04
2013-12-23,28.7,20.8,7.5,24.8,15.8,2.3,88,81,71,30.43,30.10,29,15,29,0.00
2013-12-24,19.5,11.9,4.9,13.4,5.8,-1.3,88,76,69,30.53,30.33,22,9,22,0.00
2013-12-25,30.9,26.4,19.5,28.4,20.5,13.2,91,78,70,30.34,30.11,29,15,29,0.00
2013-12-26,36.4,30.9,22.6,27.5,24.2,17.4,85,76,69,30.30,30.12,25,13,25,0.00
2013-12-27,46.4,36.1,27.6,37.2,30.8,24.5,89,81,69,30.29,30.13,24,12,24,0.00
2013-12-28,52.2,41.2,34.9,40.0,34.1,30.4,85,76,62,30.14,29.86,24,14,24,0.00
2013-12-29,40.0,31.7,19.3,32.2,27.7,15.4,92,85,72,30.12,29.76,30,14,30,0.00
2013-12-30,19.2,16.2,11.4,15.2,9.9,6.2,85,76,69,30.27,30.12,20,8,20,0.00
2013-12-31,29.4,23.4,16.7,21.6,16.5,11.3,85,75,64,30.32,30.12,20,8,20,0.00
2014-1-1,32.5,26.0,20.4,27.3,22.3,18.1,91,86,81,30.16,30.00,20,9,20,0.00
2014-1-2,20.3,15.1,5.7,18.0,11.4,0.9,91,85,73,30.35,29.95,34,16,35,0.00